Back to catalog

STARLINK-30921

AliveCommunicationsVLEO
NORAD 58383·PAYLOAD·🇺🇸 United States

Launched Nov 20, 2023 from Vandenberg Space Force Base

Loading…

Next Passes (next 24 hours)

TLE

FreshSource: CelesTrak SupGP

Epoch: Sep 14, 2026, 20:42 UTC

1 58383C 23178K   26257.86298611  .00029923  00000+0  88496-3 0  2570
2 58383  53.1576 198.2595 0001244  95.8016 237.1961 15.34344799    14

Track STARLINK-30921 in real time with AllMySat

Download on the App Store